Time,TemperatureF,DewpointF,PressureIn,WindDirection,WindDirectionDegrees,WindSpeedMPH,WindSpeedGustMPH,Humidity,HourlyPrecipIn,Conditions,Clouds,dailyrainin,SoftwareType,DateUTC
2013-06-29 00:02:00,62.0,-99.9,30.09,NW,311,3.0,4.0,-999,-99.99,,,-99.99,,2013-06-29 07:02:00,
2013-06-29 00:12:00,61.0,-99.9,30.10,WNW,303,6.0,7.0,-999,-99.99,,,-99.99,,2013-06-29 07:12:00,
2013-06-29 00:33:00,61.0,-99.9,30.10,NW,308,2.0,4.0,-999,-99.99,,,-99.99,,2013-06-29 07:33:00,
2013-06-29 00:43:00,61.0,-99.9,30.10,NNW,338,2.0,3.0,-999,-99.99,,,-99.99,,2013-06-29 07:43:00,
2013-06-29 00:53:00,62.0,-99.9,30.11,NNW,345,3.0,4.0,-999,-99.99,,,-99.99,,2013-06-29 07:53:00,
2013-06-29 01:01:00,62.0,-99.9,30.11,North,350,3.0,5.0,-999,-99.99,,,-99.99,,2013-06-29 08:01:00,
2013-06-29 01:12:00,62.0,-99.9,30.10,NNW,330,4.0,5.0,-999,-99.99,,,-99.99,,2013-06-29 08:12:00,
2013-06-29 01:34:00,62.0,-99.9,30.11,NNW,334,3.0,5.0,-999,-99.99,,,-99.99,,2013-06-29 08:34:00,
2013-06-29 01:43:00,62.0,-99.9,30.11,NW,325,3.0,4.0,-999,-99.99,,,-99.99,,2013-06-29 08:43:00,
2013-06-29 01:52:00,62.0,-99.9,30.11,NNW,327,2.0,4.0,-999,-99.99,,,-99.99,,2013-06-29 08:52:00,
2013-06-29 02:02:00,62.0,-99.9,30.10,NNW,329,2.0,3.0,-999,-99.99,,,-99.99,,2013-06-29 09:02:00,
2013-06-29 02:12:00,63.0,-99.9,30.10,WNW,299,2.0,3.0,-999,-99.99,,,-99.99,,2013-06-29 09:12:00,
2013-06-29 02:33:00,62.0,-99.9,30.11,NNW,331,4.0,4.0,-999,-99.99,,,-99.99,,2013-06-29 09:33:00,
2013-06-29 02:42:00,63.0,-99.9,30.11,North,351,2.0,4.0,-999,-99.99,,,-99.99,,2013-06-29 09:42:00,
2013-06-29 02:53:00,63.0,-99.9,30.11,NW,314,2.0,2.0,-999,-99.99,,,-99.99,,2013-06-29 09:53:00,
2013-06-29 03:01:00,63.0,-99.9,30.11,NW,306,2.0,2.0,-999,-99.99,,,-99.99,,2013-06-29 10:01:00,
2013-06-29 03:11:00,61.0,-99.9,30.11,NNW,331,2.0,3.0,-999,-99.99,,,-99.99,,2013-06-29 10:11:00,
2013-06-29 03:33:00,61.0,-99.9,30.12,WNW,290,2.0,3.0,-999,-99.99,,,-99.99,,2013-06-29 10:33:00,
2013-06-29 03:43:00,61.0,-99.9,30.12,North,-999,-999.0,-999.0,-999,-99.99,,,-99.99,,2013-06-29 10:43:00,
2013-06-29 03:53:00,62.0,-99.9,30.11,SE,141,1.0,2.0,-999,-99.99,,,-99.99,,2013-06-29 10:53:00,
2013-06-29 04:02:00,64.0,-99.9,30.11,SE,140,4.0,4.0,-999,-99.99,,,-99.99,,2013-06-29 11:02:00,
2013-06-29 04:11:00,62.0,-99.9,30.11,NW,323,2.0,2.0,-999,-99.99,,,-99.99,,2013-06-29 11:11:00,
2013-06-29 04:33:00,67.0,-99.9,30.11,SE,133,4.0,6.0,-999,-99.99,,,-99.99,,2013-06-29 11:33:00,
2013-06-29 04:43:00,64.0,-99.9,30.11,NW,309,3.0,4.0,-999,-99.99,,,-99.99,,2013-06-29 11:43:00,
2013-06-29 04:53:00,62.0,-99.9,30.11,WNW,303,4.0,4.0,-999,-99.99,,,-99.99,,2013-06-29 11:53:00,
2013-06-29 05:43:00,59.0,-99.9,30.09,SSE,168,1.0,2.0,-999,-99.99,,,-99.99,,2013-06-29 12:43:00,
2013-06-29 05:53:00,59.0,-99.9,30.11,NNW,344,2.0,4.0,-999,-99.99,,,-99.99,,2013-06-29 12:53:00,
2013-06-29 06:02:00,60.0,-99.9,30.11,NNW,339,3.0,4.0,-999,-99.99,,,-99.99,,2013-06-29 13:02:00,
2013-06-29 06:53:00,60.0,-99.9,30.10,NW,321,4.0,5.0,-999,-99.99,,,-99.99,,2013-06-29 13:53:00,
2013-06-29 07:02:00,59.0,-99.9,30.10,SE,131,1.0,2.0,-999,-99.99,,,-99.99,,2013-06-29 14:02:00,
2013-06-29 07:12:00,62.0,-99.9,30.10,SSW,197,1.0,2.0,-999,-99.99,,,-99.99,,2013-06-29 14:12:00,
2013-06-29 07:45:00,62.0,-99.9,30.10,SSW,199,2.0,6.0,-999,-99.99,,,-99.99,,2013-06-29 14:45:00,
2013-06-29 07:53:00,63.0,-99.9,30.09,SSW,192,2.0,4.0,-999,-99.99,,,-99.99,,2013-06-29 14:53:00,
2013-06-29 08:02:00,63.0,-99.9,30.09,NNW,330,-999.0,1.0,-999,-99.99,,,-99.99,,2013-06-29 15:02:00,
2013-06-29 08:11:00,59.0,-99.9,30.09,NNW,328,5.0,8.0,-999,-99.99,,,-99.99,,2013-06-29 15:11:00,
2013-06-29 08:22:00,59.0,-99.9,30.09,NNW,328,5.0,8.0,-999,-99.99,,,-99.99,,2013-06-29 15:22:00,
2013-06-29 08:33:00,61.0,-99.9,30.10,NW,317,2.0,2.0,-999,-99.99,,,-99.99,,2013-06-29 15:33:00,
2013-06-29 08:42:00,61.0,-99.9,30.10,WNW,298,3.0,3.0,-999,-99.99,,,-99.99,,2013-06-29 15:42:00,
2013-06-29 08:53:00,61.0,-99.9,30.10,NW,316,3.0,3.0,-999,-99.99,,,-99.99,,2013-06-29 15:53:00,
2013-06-29 09:02:00,62.0,-99.9,30.10,NW,320,3.0,4.0,-999,-99.99,,,-99.99,,2013-06-29 16:02:00,
2013-06-29 09:12:00,61.0,-99.9,30.10,NW,318,2.0,4.0,-999,-99.99,,,-99.99,,2013-06-29 16:12:00,
2013-06-29 09:34:00,63.0,-99.9,30.10,WSW,257,0.0,1.0,-999,-99.99,,,-99.99,,2013-06-29 16:34:00,
2013-06-29 09:43:00,63.0,-99.9,30.10,NW,315,3.0,3.0,-999,-99.99,,,-99.99,,2013-06-29 16:43:00,
2013-06-29 09:53:00,63.0,-99.9,30.10,NW,318,3.0,4.0,-999,-99.99,,,-99.99,,2013-06-29 16:53:00,
2013-06-29 10:02:00,63.0,-99.9,30.10,NW,319,2.0,6.0,-999,-99.99,,,-99.99,,2013-06-29 17:02:00,
2013-06-29 10:12:00,63.0,-99.9,30.09,NW,311,7.0,7.0,-999,-99.99,,,-99.99,,2013-06-29 17:12:00,
2013-06-29 10:34:00,63.0,-99.9,30.10,NW,310,3.0,7.0,-999,-99.99,,,-99.99,,2013-06-29 17:34:00,
2013-06-29 11:12:00,65.0,-99.9,30.10,NW,325,7.0,8.0,-999,-99.99,,,-99.99,,2013-06-29 18:12:00,
2013-06-29 11:34:00,65.0,-99.9,30.10,NNE,21,0.0,4.0,-999,-99.99,,,-99.99,,2013-06-29 18:34:00,
2013-06-29 11:43:00,65.0,-99.9,30.11,NNW,335,0.0,2.0,-999,-99.99,,,-99.99,,2013-06-29 18:43:00,
2013-06-29 11:53:00,65.0,-99.9,30.11,NW,319,1.0,3.0,-999,-99.99,,,-99.99,,2013-06-29 18:53:00,
2013-06-29 12:01:00,66.0,-99.9,30.11,NNW,333,5.0,6.0,-999,-99.99,,,-99.99,,2013-06-29 19:01:00,
2013-06-29 12:12:00,68.0,-99.9,30.11,NNW,329,5.0,6.0,-999,-99.99,,,-99.99,,2013-06-29 19:12:00,
2013-06-29 12:34:00,69.0,-99.9,30.10,NW,326,6.0,7.0,-999,-99.99,,,-99.99,,2013-06-29 19:34:00,
2013-06-29 12:43:00,68.0,-99.9,30.10,West,281,0.0,2.0,-999,-99.99,,,-99.99,,2013-06-29 19:43:00,
2013-06-29 12:54:00,69.0,-99.9,30.10,NW,321,1.0,3.0,-999,-99.99,,,-99.99,,2013-06-29 19:54:00,
2013-06-29 13:02:00,70.0,-99.9,30.10,NW,312,4.0,5.0,-999,-99.99,,,-99.99,,2013-06-29 20:02:00,
2013-06-29 16:12:00,72.0,-99.9,30.04,NW,305,2.0,4.0,-999,-99.99,,,-99.99,,2013-06-29 23:12:00,
2013-06-29 18:53:00,73.0,-99.9,30.01,West,272,0.0,3.0,-999,-99.99,,,-99.99,,2013-06-30 01:53:00,
2013-06-29 19:12:00,75.0,-99.9,30.01,WNW,295,-999.0,1.0,-999,-99.99,,,-99.99,,2013-06-30 02:12:00,
2013-06-29 19:34:00,74.0,-99.9,30.01,NW,314,-999.0,2.0,-999,-99.99,,,-99.99,,2013-06-30 02:34:00,
2013-06-29 19:43:00,74.0,-99.9,30.01,WSW,255,-999.0,1.0,-999,-99.99,,,-99.99,,2013-06-30 02:43:00,
2013-06-29 19:53:00,74.0,-99.9,30.00,NW,311,10.0,11.0,-999,-99.99,,,-99.99,,2013-06-30 02:53:00,
2013-06-29 20:02:00,74.0,-99.9,30.00,NW,313,7.0,9.0,-999,-99.99,,,-99.99,,2013-06-30 03:02:00,
2013-06-29 20:23:00,73.0,-99.9,30.00,NW,307,5.0,8.0,-999,-99.99,,,-99.99,,2013-06-30 03:23:00,
2013-06-29 20:34:00,78.0,-99.9,30.00,North,359,4.0,7.0,-999,-99.99,,,-99.99,,2013-06-30 03:34:00,
2013-06-29 20:53:00,76.0,-99.9,30.00,NNW,334,7.0,10.0,-999,-99.99,,,-99.99,,2013-06-30 03:53:00,
2013-06-29 21:02:00,76.0,-99.9,30.00,NNW,344,4.0,9.0,-999,-99.99,,,-99.99,,2013-06-30 04:02:00,
2013-06-29 21:12:00,75.0,-99.9,30.01,North,353,4.0,8.0,-999,-99.99,,,-99.99,,2013-06-30 04:12:00,
2013-06-29 21:22:00,75.0,-99.9,30.01,North,353,4.0,8.0,-999,-99.99,,,-99.99,,2013-06-30 04:22:00,
2013-06-29 21:33:00,75.0,-99.9,30.01,North,10,3.0,10.0,-999,-99.99,,,-99.99,,2013-06-30 04:33:00,
2013-06-29 21:43:00,74.0,-99.9,30.01,NNW,346,2.0,6.0,-999,-99.99,,,-99.99,,2013-06-30 04:43:00,
2013-06-29 21:53:00,70.0,-99.9,30.01,NW,310,9.0,11.0,-999,-99.99,,,-99.99,,2013-06-30 04:53:00,
2013-06-29 22:02:00,71.0,-99.9,30.02,NNW,336,4.0,6.0,-999,-99.99,,,-99.99,,2013-06-30 05:02:00,
2013-06-29 22:12:00,73.0,-99.9,30.01,North,3,5.0,9.0,-999,-99.99,,,-99.99,,2013-06-30 05:12:00,
2013-06-29 22:22:00,73.0,-99.9,30.01,North,3,5.0,9.0,-999,-99.99,,,-99.99,,2013-06-30 05:22:00,
2013-06-29 22:34:00,73.0,-99.9,30.02,North,359,1.0,3.0,-999,-99.99,,,-99.99,,2013-06-30 05:34:00,
2013-06-29 22:53:00,71.0,-99.9,30.02,NW,318,2.0,6.0,-999,-99.99,,,-99.99,,2013-06-30 05:53:00,
2013-06-29 23:02:00,71.0,-99.9,30.03,ENE,61,0.0,2.0,-999,-99.99,,,-99.99,,2013-06-30 06:02:00,
2013-06-29 23:12:00,70.0,-99.9,30.02,SW,224,2.0,2.0,-999,-99.99,,,-99.99,,2013-06-30 06:12:00,
2013-06-29 23:34:00,68.0,-99.9,30.02,ESE,102,1.0,5.0,-999,-99.99,,,-99.99,,2013-06-30 06:34:00,
2013-06-29 23:43:00,66.0,-99.9,30.03,SSE,166,-999.0,1.0,-999,-99.99,,,-99.99,,2013-06-30 06:43:00,
2013-06-29 23:53:00,66.0,-99.9,30.03,NW,306,-999.0,2.0,-999,-99.99,,,-99.99,,2013-06-30 06:53:00,